Location: Newark
(49.8969°N, 3.3422°E)
Time: 00:01:21
(UTC+00:00)

A-11 Canister half - Pass Details

Date: 03 February 2020
Orbit: 1517 x 1683 km, 47.2° (Epoch: 24 February)

Event Time Altitude Azimuth Distance (km) Brightness Sun altitude
Rises 23:00:16 0° 257° (WSW) 4,767 11.7 -54.4°
Enters shadow 23:00:56 - 257° (WSW) 4,550 11.6 -54.5°
Reaches altitude 10° 23:03:23 10° 256° (WSW) 3,762 - -54.6°
Maximum altitude 23:12:50 76° 174° (S) 1,580 - -55.2°
Drops below altitude 10° 23:22:05 10° 91° (E) 3,682 - -55.7°
Sets 23:25:05 0° 90° (E) 4,661 - -55.8°
